This is the latest recevied weather packets stored in our database for station/object KE0LFX. If no packets are shown the sender has not sent any weather packets the latest 10 day(s).
| Time | Temp. | Humidity | Pressure | Rain* | Wind** | Luminosity | Snow |
|---|---|---|---|---|---|---|---|
| 1777735053 | 11.11° C | 46% | 1024.8 hPa | 0 mm | - | 50 W/m² | - |
| 1777734749 | 11.11° C | 50% | 1024.9 hPa | 0 mm | - | 85 W/m² | - |
| 1777734448 | 10.56° C | 54% | 1024.7 hPa | 0 mm | - | 78 W/m² | - |
| 1777734144 | 10° C | 55% | 1025.1 hPa | 0 mm | - | 49 W/m² | - |
| 1777733840 | 10.56° C | 54% | 1024.9 hPa | 0 mm | - | 46 W/m² | - |
| 1777733537 | 10° C | 59% | 1024.7 hPa | 0 mm | - | 46 W/m² | - |
| 1777733233 | 10° C | 59% | 1024.9 hPa | 0 mm | - | 47 W/m² | - |
| 1777732930 | 10° C | 62% | 1024.8 hPa | 0 mm | - | 45 W/m² | - |
| 1777732626 | 10° C | 63% | 1024.9 hPa | 0 mm | - | 96 W/m² | - |
| 1777732324 | 9.44° C | 63% | 1024.9 hPa | 0 mm | - | 43 W/m² | - |
| 1777732020 | 9.44° C | 67% | 1025.1 hPa | 0 mm | - | 47 W/m² | - |
| 1777731717 | 9.44° C | 71% | 1025.1 hPa | 0 mm | - | 96 W/m² | - |
| 1777731414 | 8.89° C | 71% | 1025.2 hPa | 0 mm | - | 43 W/m² | - |
| 1777731113 | 8.89° C | 73% | 1024.9 hPa | 0 mm | - | 53 W/m² | - |
| 1777730811 | 8.89° C | 73% | 1025.1 hPa | 0 mm | - | 42 W/m² | - |
| 1777730507 | 8.33° C | 74% | 1024.8 hPa | 0 mm | - | 43 W/m² | - |
| 1777730203 | 8.33° C | 74% | 1025 hPa | 0 mm | - | 40 W/m² | - |
| 1777729900 | 8.33° C | 74% | 1024.9 hPa | 0 mm | - | 47 W/m² | - |
| 1777729597 | 7.78° C | 76% | 1024.9 hPa | 0 mm | - | 39 W/m² | - |
| 1777729293 | 7.78° C | 77% | 1024.8 hPa | 0 mm | - | 53 W/m² | - |
| 1777728990 | 7.78° C | 78% | 1025 hPa | 0 mm | - | 38 W/m² | - |
| 1777728687 | 7.22° C | 79% | 1024.7 hPa | 0 mm | - | 37 W/m² | - |
| 1777728384 | 6.67° C | 80% | 1024.9 hPa | 0 mm | - | 38 W/m² | - |
| 1777728081 | 6.67° C | 82% | 1024.9 hPa | 0 mm | - | 36 W/m² | - |
| 1777727778 | 6.67° C | 83% | 1025 hPa | 0 mm | - | 36 W/m² | - |
* Rain latest hour (hover to see other rain measurements)
** Current wind speed in m/s (hover to see current wind gust speed)